レモン彗星

C/2023 TD22 ( Lemmon )

English version
Home page
Updated on November 26, 2024

---------------------------------------------------------------------

・ プロフィール

発見日 2023年10月12日
発見光度 21.5等
発見者 Mt. Lemmon Survey

・ 写真集

・ 軌道要素

Epoch 2024 Oct. 17.0 TT = JDT 2460600.5
T 2024 Sept. 16.29377 TT                                Rudenko
q   2.3568063            (2000.0)            P               Q
z  +0.0207715      Peri.   32.53511     +0.89045849     -0.45478320
 +/-0.0000028      Node     5.55627     -0.44482284     -0.86246358
e   0.9510455      Incl.  170.48971     -0.09600167     -0.22210091
From 578 observations 2023 Sept. 26-2024 Nov. 4, mean residual 0".4.

・ 光度変化

        H = 14.5  G = 0.15                     [    ,-112]  (              〜2024年 5月27日)
        m1 = 0.8 + 5 logΔ + 40 log r(t + 10)  [-112,  86]  (2024年 5月27日〜2024年12月11日)
        H = 14.5  G = 0.15                     [  86,    ]  (2024年12月11日〜              )

---------------------------------------------------------------------

軌道要素はM.P.E.C. 2024-V117に掲載されたものです。
光度グラフはComet for Windowsで作成したものです。

---------------------------------------------------------------------

Copyright(C) Seiichi Yoshida (comet@aerith.net). All rights reserved.